Home   Weather   Christchurch   Past weeks

Flag for New Zealand Past Weather in Christchurch, New Zealand — Yesterday and Last 2 Weeks

Now
73 °F

Mild.


Feels Like: 77 °F
Forecast: 54 / 69 °F
Wind: 12 mph from East

Location: Christchurch Airport

Current Time: Feb 23, 2017 at 6:02:30 pm

Latest Report: Feb 23, 2017 at 5:00 pm


Visibility: N/A

Pressure: 30.24 "Hg

Humidity: 50%

Dew Point: 54 °F

Location of ChristchurchLocation

Past Weather in Christchurch — Graph

°F

Christchurch Temperature Yesterday

Maximum temperature yesterday: 75 °F (at 10:00 am)
Minimum temperature yesterday: 55 °F (at 3:30 am)
Average temperature yesterday: 64 °F

High & Low Weather Summary for the Past Weeks

 TemperatureHumidityPressure
High84 °F (Feb 12, 6:00 pm)100% (Feb 9, 8:00 am)30.39 "Hg (Feb 9, 8:00 am)
Low37 °F (Feb 9, 7:30 am)19% (Feb 14, 2:30 pm)28.94 "Hg (Feb 13, 6:30 am)
Average61 °F74%29.90 "Hg
* Reported Feb 8 4:00 pm — Feb 23 4:30 pm, Christchurch, Weather by CustomWeather, © 2017

Note: Actual official high and low records may vary slightly from our data, if they occured in-between our weather recording intervals... More about our weather records

Advertising

Christchurch Weather History for the Previous 24 Hours

Scroll right to see more
 ConditionsComfort  
Time TempWeatherWind HumidityBarometerVisibility
4:30 pm
Thu, Feb 23
73 °FMild.10 mph50%30.24 "HgN/A
4:00 pm73 °FMild.10 mph47%30.24 "HgN/A
3:30 pm75 °FMild.6 mph44%30.27 "HgN/A
3:00 pm73 °FMild.7 mph47%30.27 "HgN/A
2:30 pm73 °FMild.8 mph50%30.27 "HgN/A
2:00 pm72 °FMild.7 mph53%30.27 "HgN/A
1:30 pm72 °FMild.8 mph53%30.27 "HgN/A
1:00 pm72 °FPassing clouds.7 mph50%30.27 "HgN/A
12:30 pm70 °FPartly sunny.5 mph53%30.27 "HgN/A
12:00 pm70 °FOvercast.7 mph53%30.27 "HgN/A
11:30 am68 °FOvercast.7 mph56%30.30 "HgN/A
11:00 am66 °FOvercast.6 mph60%30.30 "HgN/A
10:30 am66 °FPartly sunny.7 mph60%30.27 "HgN/A
10:00 am66 °FPartly sunny.8 mph60%30.27 "HgN/A
9:30 am64 °FOvercast.7 mph68%30.27 "HgN/A
9:00 am63 °FOvercast.5 mph77%30.27 "HgN/A
8:30 am61 °FOvercast.5 mph88%30.24 "HgN/A
8:00 am61 °FOvercast.3 mph88%30.24 "HgN/A
7:30 am59 °FOvercast.2 mph94%30.24 "HgN/A
7:00 am59 °FOvercast.2 mph94%30.21 "HgN/A
6:30 am59 °FOvercast.2 mph94%30.21 "HgN/A
6:00 am59 °FOvercast.1 mph94%30.21 "HgN/A
5:30 am59 °FOvercast.1 mph94%30.18 "HgN/A
5:00 am59 °FOvercast.3 mph94%30.18 "HgN/A
4:30 am59 °FOvercast.5 mph94%30.18 "HgN/A
4:00 am59 °FOvercast.2 mph94%30.18 "HgN/A
3:30 am59 °FOvercast.2 mph94%30.18 "HgN/A
3:00 am59 °FMostly cloudy.2 mph94%30.18 "HgN/A
2:30 am59 °FOvercast.3 mph94%30.15 "HgN/A
2:00 am59 °FOvercast.3 mph94%30.15 "HgN/A
1:30 am59 °FPassing clouds.6 mph94%30.15 "HgN/A
1:00 am59 °FOvercast.7 mph94%30.15 "HgN/A
12:30 am59 °FOvercast.7 mph94%30.15 "HgN/A
12:00 am59 °FOvercast.8 mph94%30.15 "HgN/A
11:30 pm
Wed, Feb 22
59 °FPassing clouds.7 mph94%30.12 "HgN/A
11:00 pm59 °FPassing clouds.7 mph94%30.12 "HgN/A
10:30 pm59 °FPassing clouds.7 mph94%30.09 "HgN/A
10:00 pm59 °FCool.9 mph94%30.09 "HgN/A
9:30 pm61 °FCool.10 mph88%30.07 "HgN/A
9:00 pm61 °FCool.12 mph88%30.07 "HgN/A
8:30 pm63 °FMild.12 mph83%30.04 "HgN/A
8:00 pm64 °FMild.14 mph73%30.04 "HgN/A
7:30 pm66 °FMild.17 mph68%30.04 "HgN/A
7:00 pm66 °FMild.16 mph68%30.01 "HgN/A
6:30 pm68 °FMild.20 mph64%30.01 "HgN/A
6:00 pm70 °FMild.18 mph60%30.01 "HgN/A
Weather by CustomWeather, © 2017

See weather overviewHow to use our weather pages